Regional Weather Roundup
Issued by NWS Wakefield, VA

Home | Current Version | Previous Version | Graphics & Text | Print | Product List | Glossary On
Versions: 1 2 3 4 5 6 7 8 9 10 11 12 13 14 15 16 17 18 19 20 21 22 23 24 25 26 27 28 29 30 31 32 33 34 35 36 37 38 39 40 41 42 43 44 45 46 47 48 49 50
000
ASUS41 KAKQ 191514
RWRAKQ

REGIONAL WEATHER ROUNDUP
NATIONAL WEATHER SERVICE WAKEFIELD VA
1100 AM EDT SUN APR 19 2015

Note: "fair" indicates few or no clouds below 12,000 feet with no
significant weather and/or obstructions to visibility. * = Denotes
station may not report precipitation (e.g., rain,snow,etc.),
thunder or fog.

VAZ042-051-052>054-056-191600-
NORTHERN VIRGINIA

CITY           SKY/WX    TMP DP  RH WIND       PRES   REMARKS
WASH NATIONAL  PTSUNNY   66  41  40 E14G23    30.17S
DULLES         PTSUNNY   65  37  35 SE15      30.16S
FORT BELVOIR   PTSUNNY   65  38  37 VRB7G20   30.17R
QUANTICO       PTSUNNY   66  41  40 E13       30.17R
FREDERICKSBRG* CLOUDY    66  38  35 E14       30.14S
STAFFORD*      CLOUDY    65  35  32 E16       30.19R
WARRENTON      PTSUNNY   67  39  36 E12G17    30.15S
CULPEPER*      CLOUDY    70  37  30 E7        30.15S
MANASSAS*      SUNNY     64  37  36 E13G18    30.16R
LEESBURG*      MOSUNNY   64  36  34 SE9G16    30.18S
WINCHESTER     MOSUNNY   64  27  24 E7        30.15S
FRONT ROYAL*   CLOUDY    63  37  39 SE8G16    30.13S
LURAY*         FAIR      64  43  45 E14G22    30.13S
$$

VAZ048-049-060>072-079>083-191600-
CENTRAL AND SOUTH CENTRAL VIRGINIA

CITY           SKY/WX    TMP DP  RH WIND       PRES   REMARKS
RICHMOND       CLOUDY    66  47  50 E13       30.11R
CHESTERFIELD*  NOT AVBL
PETERSBURG*    CLOUDY    70  56  62 E12       30.10S
HANOVER        CLOUDY    65  43  44 E12G20    30.13R
TAPPAHANNOCK*  CLOUDY    66  39  36 NE9       30.15R
QUINTON*       FAIR      65  47  52 E12G22    30.12R
CHARLOTTSVILLE PTSUNNY   63  47  55 NE10      30.12R
GORDONSVILLE*  PTSUNNY   64  44  46 NE10G16   30.12S
ORANGE*        CLOUDY    66  43  42 NE12      30.14S
LOUISA*        CLOUDY    66  46  48 E12       30.11S
BUMPASS*       FAIR      64  41  44 E12G25    30.12S
FARMVILLE*     CLOUDY    71  57  62 E13       30.07R
CREWE*         FAIR      68  59  72 E5        30.07S
FORT PICKETT*  FAIR      67  59  75 E12       30.08S
CHASE CITY*    CLOUDY    68  65  90 E3        30.06S
CLARKSVILLE*   CLOUDY    64  61  88 E12       30.05R
SOUTH HILL*    CLOUDY    65  59  81 E5        30.13R
LAWRENCEVILLE* FAIR      66  61  82 NE3       30.07S
EMPORIA*       CLOUDY    64  59  82 NE9       30.09F
$$

VAZ088>098-191600-
SOUTHEAST VIRGINIA

CITY           SKY/WX    TMP DP  RH WIND       PRES   REMARKS
NORFOLK        MOSUNNY   62  53  72 NE8       30.10R
VIRGINIA BEACH PTSUNNY   69  54  58 E15G22    30.09R
NORFOLK NAVAL  PTSUNNY   67  53  61 E13       30.12R
WEST POINT*    CLOUDY    69  44  40 NE8       30.15R
SALUDA*        FAIR      63  53  70 E8        30.13R
NEWPORT NEWS   PTSUNNY   67  52  58 E14       30.13R
LANGLEY AFB    MOSUNNY   64  53  68 E16G23    30.11R
FORT EUSTIS    PTSUNNY   66  50  55 E9        30.11R HAZE
WILLIAMSBURG*  CLOUDY    68  54  60 E7        30.14R
HR EXEC AP*    FAIR      72  54  53 E12       30.10S
FRANKLIN*      CLOUDY   N/A N/A N/A E10       30.09S
WAKEFIELD      CLOUDY    71  56  58 NE8       30.10R
$$

VAZ020-022-025-037-045-191600-
WEST CENTRAL AND SOUTHWEST VIRGINIA

CITY           SKY/WX    TMP DP  RH WIND       PRES   REMARKS
STAUNTON*      CLOUDY    63  49  61 E3        30.13R
WAYNESBORO*    CLOUDY    60  47  62 E10       30.11S
HOT SPRINGS VA CLOUDY    56  45  67 E10G21    30.08S
LYNCHBURG      CLOUDY    63  58  83 NE12      30.07S
DANVILLE       CLOUDY    69  62  78 E7        30.02S
SOUTH BOSTON*  CLOUDY    67  61  81 E12G17    30.05R
MARTINSVILLE   CLOUDY    66  66 100 E7        30.03S
ROANOKE        LGT RAIN  63  61  93 SE14      30.05R
BLACKSBURG     RAIN      60  58  95 E8        30.05F
DUBLIN*        RAIN      61  61 100 E8        30.02F
MARION*        LGT RAIN  60  57  88 E10G16    30.00F
HILLSVILLE*    DRIZZLE   59  57  94 E12G18    30.00F
RICHLANDS*     RAIN      60  54  80 SE14G32   29.92F
WISE*          LGT RAIN  61  55  82 SE6       29.91S
ABINGDON*      LGT RAIN  64  60  85 SE12      29.90F
$$

MDZ021>025-VAZ099-100-191600-
SOUTHERN MARYLAND AND THE DELMARVA PENINSULA

CITY           SKY/WX    TMP DP  RH WIND       PRES   REMARKS
PATUXENT RIVER PTSUNNY   63  52  67 E12       30.16R
BAY BRIDGE APT   N/A     63  41  45 E18G26    30.18S
LEONARDTOWN    PTSUNNY   63  45  51 E10G17    30.17R
DOVER          CLOUDY    58  44  60 E18G28    30.19R
GEORGETOWN     CLOUDY    61  44  53 E18       30.21R
EASTON         SUNNY     64  48  55 E16G25    30.22R
CAMBRIDGE      PTSUNNY   63  48  59 E20G25    30.17R
SALISBURY      PTSUNNY   63  49  60 E21G29    30.17R
OCEAN CITY     PTSUNNY   55  46  71 NE16G23   30.18R
WALLOPS ISLAND PTSUNNY   62  54  74 NE23G31   30.16R
ACCOMACK*      PTSUNNY   64  50  59 E16G28    30.13R
$$

NCZ012>017-030>032-191600-
NORTH CENTRAL AND EASTERN NORTH CAROLINA

CITY           SKY/WX    TMP DP  RH WIND       PRES   REMARKS
ROANOKE RAPIDS PTSUNNY   64  59  82 E9        30.07S
RALEIGH        CLOUDY    70  64  81 E8        30.02S
ELIZABETH CITY CLOUDY    69  57  65 E14       30.09R
AHOSKIE*       CLOUDY    65  57  75 NE7       30.08F
EDENTON*       CLOUDY    68  58  70 E10       30.08R
CURRITUCK*     CLOUDY    66  56  68 E7        30.10R
KILL DEVIL HLS CLOUDY    63  59  85 E5        30.07S
MANTEO         CLOUDY    67  59  75 E14G23    30.08S
CAPE HATTERAS  CLOUDY    63  60  90 NE7       30.05S
TARBORO*       CLOUDY    69  63  82 NE7       30.07R
GOLDSBORO      CLOUDY    75  66  73 E9        30.00S
WASHINGTON     CLOUDY    67  63  85 E12G17    30.06R
GREENVILLE     PTSUNNY   70  64  83 E10       30.06F
NEW BERN       CLOUDY    75  62  64 E13       30.04R
WILMINGTON     CLOUDY    74  64  71 E13       30.00R
$$

VAZ048-191600-
ELSEWHERE

CITY           SKY/WX    TMP DP  RH WIND       PRES   REMARKS
HARRISBURG PA  PTSUNNY   62  33  33 SE13      30.20R
BALTIMORE      PTSUNNY   61  42  49 E21       30.19R
ANNAPOLIS      MOSUNNY   60  43  53 E15       30.19R
ANDREWS AFB    SUNNY     63  39  42 NE3       30.15F
PHILADELPHIA   PTSUNNY   61  40  45 E14       30.24R
HENDERSON NC   CLOUDY    67  61  82 E10G21    30.05R
GREENSBORO     CLOUDY    66  62  87 E14       29.97F
ROCKY MOUNT    CLOUDY    69  65  86 E8        30.04S
$$

VAZ100-191600-
MARINE

STATION/POSITION TIME  TEMP    WIND        PRES    WAVE   SWELL
                       AIR SEA DIR/SP/G            HT/PER HT/PER
                 (UTC) (F)     (DEG/KT/KT) (MB)    (FT/S) (FT/S)
BRANDYWINE LGT   1400   53 50  100/ 25/ 29 1022.7R
CAPE MAY NJ      1400   55 54   80/ 12/ 25 1022.3R
LEWES DE         1400   52 51   90/ 17/ 23 1022.5R
15NM E FENWICK I 1450   51 48              1021.7R   5/ 5
OCEAN-CITY-INLET 1400   53 49   70/ 10/ 16 1021.4R
WACHAPREAGUE VA  1400   56 61   50/ 20/ 25 1019.9R
THOMAS POINT MD  1500   59 55   90/ 19/ 22 1022.7R
GOOSES REEF MD   1500   59 55  100/ 10/ 14   N/A     0
COVE POINT MD    1400   59     100/  7/  9 1020.9R
SOLOMONS ISLAND  1400      56                N/A
BISHOPS HEAD MD  1400   62 63   80/ 14/ 20 1020.1R
PINEY POINT MD   1400          110/ 16/ 19   N/A
CAMBRIDGE MD     1400   59 59   70/ 16/ 20 1020.9R
LEWISETTA VA     1400   59 60              1020.2R
RAPPAHANNOCK LGT 1400           70/ 22/ 25 1019.6R
STINGRAY PT      1500   59 56  110/  8/ 10 1021.3R   2/ 3
YORK RVR RNG VA  1400   60     100/ 10/ 11 1018.8R
YORKTOWN VA      1400   59 59   80/  7/  9 1019.4R
DOMINION TERM VA 1400   59      70/ 12/ 16 1019.2R
KIPTOPEKE VA     1400      60   80/ 11/ 17   N/A
CHES BAY BRIDGE  1400   54 55   50/ 10/ 12 1018.9R
CAPE HENRY VA    1400   55      50/  5/  7 1018.1R
CHESAPEAKE LGHT  1400   54      70/ 13/ 13 1019.8R
WILLOUBY STN VA  1400   58      80/ 13/ 15 1019.8R
S CRANEY ISL VA  1400           90/ 10/ 13 1018.7S
CAPE HENRY BUOY  1428      53                N/A     3/ 8   2/14
1ST LANDING BUOY 1500   54      80/ 10/ 12 1019.4R   1/ 4
OFFSHORE WE BUOY 1411      50                N/A     3/ 7   3/ 7
64NM E OF VA BCH 1450   63 56   60/ 12/ 14 1018.3R   4/14   3/14
DUCK PIER NC     1400   57 57   60/ 14/ 16 1017.5R
44056 DUCK FRF   1411      56                N/A     3/ 8   2/14
OREGON INLET NC  1400   60 62   40/ 12/ 15 1017.9R
HATTERAS NC      1400   64 67   30/ 12/ 17 1017.2R
DIAMOND SHLS NC  1450   73 75   90/ 12/ 14 1017.2R   4/12   3/12
CAPE LOOKOUT NC  1500   70      70/ 13/ 14 1016.2F
$$



USA.gov is the U.S. government's official web portal to all federal, state and local government web resources and services.